Regional Weather Roundup
Issued by NWS

Home | Current Version | Previous Version | Graphics & Text | Print | Product List | Glossary On
Versions: 1 2 3 4 5 6 7 8 9 10 11 12 13 14 15 16 17 18 19 20 21 22 23 24 25 26 27 28 29 30 31 32 33 34 35 36 37 38 39 40 41 42 43 44 45 46 47 48 49 50
397
ASUS44 KJAN 270803
RWRMS

MISSISSIPPI HOURLY WEATHER ROUNDUP
NATIONAL WEATHER SERVICE JACKSON MS
300 AM CDT WED AUG 27 2014

NOTE: "FAIR: INDICATES FEW OR NO CLOUDS BELOW 12,000 FEET WITH NO
SIGNIFICANT WEATHER AND/OR OBSTRUCTIONS TO VISIBILITY.

MSZ001>002-007>008-010>013-018>021-025>028-034>036-270900-
NORTHWEST MISSISSIPPI

CITY           SKY/WX    TMP DP  RH WIND       PRES   REMARKS
CLARKSDALE       N/A     72  72 100 CALM      30.06S
CLEVELAND      FAIR      73  69  87 E3        30.03S
GREENWOOD      CLEAR     73  66  78 E7        30.03S
GREENVILLE     CLEAR     70  67  90 CALM      30.03S
GRENADA        FAIR      70  64  83 CALM      30.05S
OLIVE BRANCH   CLEAR     73  73 100 CALM      30.07R
OXFORD         FAIR      72  66  83 CALM      30.08R
TUNICA         SUNNY     72  70  94 CALM      30.06S
$$

MSZ003>006-009-014>017-022>024-029>033-037>039-270900-
NORTHEAST MISSISSIPPI

CITY           SKY/WX    TMP DP  RH WIND       PRES   REMARKS
BELMONT        FAIR      67  66  97 CALM      30.07S
COLUMBUS AFB   CLEAR     67  65  93 CALM      30.05S
CORINTH        FOG       68  66  94 CALM      30.07R VSB 1/4
GOLDN TRIANGLE CLEAR     66  61  82 CALM      30.05S
STARKVILLE     FAIR      66  64  94 CALM      30.05S
TUPELO         CLEAR     70  66  87 CALM      30.05F
$$

MSZ040-058-270900-
CENTRAL MISSISSIPPI

CITY           SKY/WX    TMP DP  RH WIND       PRES   REMARKS
JACKSON INTL   MOCLDY    72  64  76 NE6       30.03R
JACKSON HAWKNS MOCLDY    73  66  78 CALM      30.04R
MERIDIAN KEY   CLEAR     67  64  90 CALM      30.03R
MERIDIAN NAS   CLEAR     67  63  87 W3        30.04R
RAYMOND        FAIR      68  63  83 CALM      30.03S
VICKSBURG      CLEAR     70  67  90 CALM      30.02S
$$

MSZ059>079-270900-
SOUTH MISSISSIPPI

CITY           SKY/WX    TMP DP  RH WIND       PRES   REMARKS
BROOKHAVEN     FAIR      68  66  94 CALM      30.03F
COLUMBIA       FAIR      68  66  94 MISG      30.00S
HATTIESBURG    PTCLDY    72  68  87 CALM      30.01S
MCCOMB         CLEAR     73  65  75 CALM      30.01S
NATCHEZ        CLEAR     68  64  88 N5        30.02R
PINE BELT      CLEAR     70  63  78 N3        30.03R
$$

MSZ080>082-270900-
COASTAL MISSISSIPPI

CITY           SKY/WX    TMP DP  RH WIND       PRES   REMARKS
BILOXI         PTCLDY    77  73  89 NE6       29.98S
PASCAGOULA     PTCLDY    73  72  96 N3        29.98S
GULFPORT       PTCLDY    77  73  87 NE6       29.97S
$$



USA.gov is the U.S. government's official web portal to all federal, state and local government web resources and services.